This is the latest recevied weather packets stored in our database for station/object K8WEH. If no packets are shown the sender has not sent any weather packets the latest 1 day(s).
| Time | Temp. | Humidity | Pressure | Rain* | Wind** | Luminosity | Snow |
|---|---|---|---|---|---|---|---|
| 1777994743 | 20° C | 61% | 1011.4 hPa | 0 mm | 0.45 m/s, 201° | - | - |
| 1777994445 | 20° C | 63% | 1011.4 hPa | 0 mm | 0.45 m/s, 275° | - | - |
| 1777994143 | 20° C | 61% | 1011.4 hPa | 0 mm | 0.89 m/s, 71° | - | - |
| 1777993843 | 20° C | 61% | 1011.4 hPa | 0 mm | 0.89 m/s, 235° | - | - |
| 1777993543 | 19.44° C | 61% | 1011.5 hPa | 0 mm | 0.45 m/s, 222° | - | - |
| 1777993243 | 19.44° C | 63% | 1011.5 hPa | 0 mm | 0 m/s | - | - |
| 1777992945 | 19.44° C | 62% | 1011.4 hPa | 0 mm | 0 m/s | - | - |
| 1777992642 | 19.44° C | 61% | 1011.4 hPa | 0 mm | 0.89 m/s, 170° | - | - |
| 1777992345 | 19.44° C | 62% | 1011.4 hPa | 0 mm | 1.34 m/s, 131° | - | - |
| 1777992041 | 19.44° C | 61% | 1011.4 hPa | 0 mm | 0.45 m/s, 26° | - | - |
| 1777991741 | 19.44° C | 61% | 1011.3 hPa | 0 mm | 0.89 m/s, 196° | - | - |
| 1777991460 | 19.44° C | 62% | 1011.3 hPa | 0 mm | 0.89 m/s, 142° | - | - |
| 1777991140 | 18.89° C | 62% | 1011.3 hPa | 0 mm | 0.45 m/s, 78° | - | - |
| 1777990840 | 18.89° C | 62% | 1011.4 hPa | 0 mm | 0.89 m/s, 228° | - | - |
| 1777990544 | 18.89° C | 62% | 1011.5 hPa | 0 mm | 0.45 m/s, 182° | - | - |
| 1777990239 | 18.89° C | 62% | 1011.4 hPa | 0 mm | 0 m/s | - | - |
| 1777989939 | 18.89° C | 63% | 1011.4 hPa | 0 mm | 0 m/s | - | - |
| 1777989641 | 18.33° C | 63% | 1011.5 hPa | 0 mm | 0.89 m/s, 141° | - | - |
| 1777989338 | 18.33° C | 63% | 1011.4 hPa | 0 mm | 0.45 m/s, 177° | - | - |
| 1777989038 | 18.33° C | 66% | 1011.4 hPa | 0 mm | 0.45 m/s, 168° | - | - |
| 1777988737 | 17.78° C | 65% | 1011.4 hPa | 0 mm | 0.45 m/s, 249° | - | - |
| 1777988437 | 17.78° C | 65% | 1011.5 hPa | 0 mm | 0 m/s | - | - |
| 1777988138 | 17.78° C | 65% | 1011.5 hPa | 0 mm | 0.45 m/s, 250° | - | - |
| 1777987836 | 17.78° C | 65% | 1011.5 hPa | 0 mm | 0.45 m/s, 184° | - | - |
| 1777987536 | 17.78° C | 64% | 1011.6 hPa | 0 mm | 0.45 m/s, 84° | - | - |
* Rain latest hour (hover to see other rain measurements)
** Current wind speed in m/s (hover to see current wind gust speed)